Погода в Оклахома-Сити

США     35°27′38″N   97°32′27″W
темп.,
°C
ветер,
м/с
пор.,
м/с
влажн.,
%
обл.,
%
осадки,
мм/ч
давл.,
гПа
погр.,
м
16 октября, сб
сб1601:00+11сз33460 0.0 102548
04:00+10сз34460 0.0 102765
07:00+9сз35460 0.0 102879
10:00+14ссз46350 0.0 1029319
13:00+19ссз45230 0.0 10281189
16:00+20сз34220 0.0 10251521
19:00+16в11300 0.0 102511
22:00+14ю34360 0.0 102653
17 октября, вс
вс1701:00+12ююз46400 0.0 102696
04:00+11юз48420 0.0 1026122
07:00+10ююз49420 0.0 1026138
10:00+16юз59360 0.0 1025294
13:00+22юз67260 0.0 1023929
16:00+23ююз67250 0.0 10201329
19:00+17ю49421 0.0 1020167
22:00+14ю5125148 0.0 1021237
18 октября, пн
пн1801:00+12ю5125367 0.0 1020235
04:00+11ю512531 0.0 1020241
07:00+10ю512570 0.0 1019208
10:00+15ю712450 0.0 1019433
13:00+21ю810325 0.0 1017968
16:00+22ю911295 0.0 10141172
19:00+18ю714383 0.0 1014518
22:00+16ю817451 0.0 1015487
19 октября, вт
вт1901:00+16ю9184573 0.0 1015520
04:00+16ю8185414 0.0 1014494
07:00+15ю817650 0.0 1014467
10:00+18ю1016640 0.0 1015587
13:00+24ююз1013520 0.0 1013969
16:00+25ю1012490 0.0 10121338
19:00+22ю814630 0.0 1013737
22:00+20ю1018690 0.0 1013632
20 октября, ср
ср2001:00+19ю918740 0.0 1014588
04:00+18ююз818780 0.0 1014548
07:00+17ююз816850 0.0 1015461
10:00+20юз467626 0.0 1018568
13:00+23ссз536152 0.0 10181075
16:00+22с43520 0.0 1017895
19:00+19с47480 0.0 1018136
22:00+16ссв36490 0.0 1020103